[[{"header":{"parameterUnit":"m.s-1","parameterCategory":1,"la1":30.2991,"la2":30.254,"lo1":-89.0895,"lo2":-89.0444,"dy":0.0017,"dx":0.0017,"nx":28,"ny":28,"refTime":"2024-04-27T03:00:00:Z","depth":0,"parameterNumber":2,"parameterNumberName":"U-component_of_WINDS"},"data":[0,0,0,0,0,0,0,0,0,0,0,0,0,0,0,0,0,0,0,0,0,0,0,0,0,0,0,0,0,0,0,0,0,0,0,0,0,0,0,0,0,0,0,0,0,0,0,0,0,0,0,0,0,0,0,0,0,0,-6.6225,-6.6227,0,-6.6402,-6.6404,-6.6406,-6.6438,-6.6436,-6.6435,-6.6433,-6.661,-6.6616,-6.6622,0,0,0,0,0,0,0,0,0,0,0,0,0,-6.5909,-6.5914,-6.6225,-6.6227,-6.6229,-6.6402,-6.6404,-6.6407,-6.6438,-6.6436,-6.6434,-6.6433,-6.6608,-6.6615,-6.6622,0,0,0,0,0,0,0,0,0,0,0,0,0,-6.6062,-6.5916,-6.6224,-6.6266,-6.6271,-6.6402,-6.6405,-6.6408,-6.6438,-6.6436,-6.6434,-6.6432,-6.6605,-6.6614,-6.6623,-6.6723,0,0,-6.6651,-6.6655,0,0,0,0,0,0,0,0,-6.6053,-6.6073,-6.6257,-6.6263,-6.627,-6.6396,-6.6358,-6.6513,-6.6439,-6.6375,-6.6433,-6.6431,-6.654,-6.6554,-6.6592,-6.6732,-6.6739,-6.6652,-6.6657,-6.6661,-6.6664,0,0,0,0,0,0,0,-6.6043,-6.6066,-6.6295,-6.626,-6.6267,-6.6274,-6.6293,-6.6387,-6.6467,-6.638,-6.6383,-6.6404,-6.6543,-6.6583,-6.6597,-6.6742,-6.6652,-6.666,-6.6665,-6.6669,-6.6972,-6.6974,0,0,0,0,0,0,-6.6025,-6.6057,-6.6289,-6.63,-6.6154,-6.6281,-6.6303,-6.6357,-6.6466,-6.6481,-6.6405,-6.6404,-6.6569,-6.6586,-6.6603,-6.6726,-6.6661,-6.667,-6.6675,-6.6969,-6.6972,-6.6975,0,0,0,0,0,0,-6.6018,-6.6046,-6.6282,-6.618,-6.621,-6.6289,-6.635,-6.6362,-6.6403,-6.6486,-6.6499,-6.6432,-6.6568,-6.659,-6.6693,-6.6733,-6.6674,-6.6682,-6.6966,-6.697,-6.6974,-6.6974,0,0,0,0,0,0,-6.6009,-6.6043,-6.6083,-6.618,-6.6216,-6.6371,-6.6352,-6.6367,-6.6419,-6.6419,-6.6515,-6.6528,-6.6568,-6.668,-6.6702,-6.6744,-6.6689,-6.6963,-6.6968,-6.6972,-6.6971,-6.6977,-6.6983,0,0,0,0,0,-6.5998,-6.6075,-6.6084,-6.6112,-6.6267,-6.6373,-6.6393,-6.6438,-6.6422,-6.6462,-6.6515,-6.6525,-6.6726,-6.669,-6.6716,-6.6761,-6.696,-6.6966,-6.6972,-6.6968,-6.6976,-6.6983,0,0,0,0,0,0,-6.5977,-6.6088,-6.61,-6.6211,-6.6283,-6.6378,-6.6429,-6.6446,-6.6522,-6.6519,-6.6571,-6.6592,-6.6692,-6.6738,-6.6696,-6.6864,-6.6842,-6.6853,-6.683,-6.6838,-6.6844,-6.683,-6.6697,0,0,0,0,0,-6.5986,-6.6065,-6.6157,-6.6246,-6.6281,-6.6349,-6.6397,-6.6426,-6.6502,-6.6531,-6.6592,-6.6664,-6.6743,-6.6793,-6.6871,-6.6979,-6.6999,-6.7023,-6.7029,-6.7033,-6.7041,-6.7101,-6.7112,-6.6994,-6.6994,-6.6994,0,0,-6.6004,-6.6075,-6.612,-6.6243,-6.6302,-6.638,-6.6374,-6.6457,-6.6515,-6.6543,-6.6644,-6.6692,-6.6775,-6.6881,-6.6931,-6.6922,-6.7079,-6.7041,-6.7044,-6.705,-6.7108,-6.7119,-6.7129,-6.6998,-6.6997,-6.6997,0,0,-6.6077,-6.6139,-6.622,-6.6279,-6.6369,-6.6414,-6.6434,-6.6527,-6.656,-6.6664,-6.6686,-6.6756,-6.6891,-6.6949,-6.6996,-6.7093,-6.7105,-6.7117,-6.7148,-6.7205,-6.7215,-6.7223,-6.7256,-6.7267,-6.7126,-6.7126,-6.7126,0,-6.6087,-6.6208,-6.6258,-6.6341,-6.6394,-6.6426,-6.6507,-6.6562,-6.6671,-6.6706,-6.6696,-6.6867,-6.6925,-6.7044,-6.7068,-6.7106,-6.7129,-6.7105,-6.721,-6.7219,-6.7227,-6.7259,-6.7271,-6.7127,-6.7126,-6.7126,-6.7126,0,-6.6215,-6.6299,-6.6353,-6.646,-6.6519,-6.66,-6.6662,-6.6716,-6.6741,-6.6787,-6.6891,-6.6963,-6.7055,-6.7086,-6.711,-6.7209,-6.72,-6.7199,-6.7178,-6.7238,-6.7269,-6.7281,-6.7128,-6.7127,-6.7127,-6.7127,0,0,-6.6277,-6.6413,-6.6432,-6.648,-6.6583,-6.6647,-6.673,-6.6822,-6.6866,-6.6942,-6.7011,-6.7126,-6.7126,-6.718,-6.7212,-6.7262,-6.7332,-6.7255,-6.7258,-6.7265,-6.7444,-6.7442,-6.7455,-6.7342,-6.7345,-6.7347,-6.7436,0,-6.636,-6.651,-6.6558,-6.6682,-6.6759,-6.6791,-6.6863,-6.6933,-6.6979,-6.705,-6.71,-6.718,-6.7175,-6.7207,-6.7259,-6.7313,-6.7368,-6.7308,-6.7405,-6.7408,-6.738,-6.7471,-6.747,-6.755,-6.7448,-6.745,-6.7452,0,-6.6476,-6.6555,-6.6687,-6.678,-6.6814,-6.6878,-6.6966,-6.7034,-6.7114,-6.7143,-6.7204,-6.7233,-6.7319,-6.7295,-6.7414,-6.7372,-6.7415,-6.7448,-6.7452,-6.746,-6.7431,-6.7479,-6.7577,-6.7587,-6.7471,-6.747,-6.7468,0,-6.6505,-6.6644,-6.6741,-6.6782,-6.6894,-6.6938,-6.6986,-6.7064,-6.7116,-6.7193,-6.7228,-6.7313,-6.736,-6.7425,-6.7475,-6.7454,-6.7589,-6.757,-6.7614,-6.7613,-6.7638,-6.7635,-6.7741,-6.7671,-6.7671,-6.7671,-6.767,0,-6.6591,-6.6669,-6.6756,-6.6815,-6.6904,-6.6959,-6.7046,-6.7095,-6.7165,-6.7233,-6.7267,-6.733,-6.7394,-6.7466,-6.7506,-6.7597,-6.7618,-6.7643,-6.7652,-6.7639,-6.7635,-6.7665,-6.766,-6.7674,-6.7673,-6.7673,-6.7672,0,-6.6637,-6.6698,-6.6805,-6.6903,-6.6929,-6.699,-6.7073,-6.7131,-6.718,-6.7266,-6.7289,-6.7364,-6.745,-6.7508,-6.7617,-6.7644,-6.7743,-6.7752,-6.7716,-6.772,-6.776,-6.7754,-6.7886,-6.7906,-6.7825,-6.7825,-6.7826,0,-6.6686,-6.6748,-6.6853,-6.6902,-6.695,-6.7029,-6.7083,-6.7141,-6.7195,-6.7291,-6.7337,-6.7426,-6.75,-6.7636,-6.7699,-6.7783,-6.7793,-6.7833,-6.7805,-6.7789,-6.779,-6.7785,-6.7791,-6.7836,-6.7837,-6.7838,-6.7838,0,-6.6766,-6.6794,-6.6871,-6.696,-6.7024,-6.7096,-6.7167,-6.7205,-6.7275,-6.7335,-6.7424,-6.7481,-6.7594,-6.7681,-6.7771,-6.782,-6.784,-6.7847,-6.7861,-6.7846,-6.7822,-6.7833,-6.7725,-6.7843,-6.7842,-6.7842,-6.7842,-6.7841,-6.6814,-6.687,-6.6953,-6.7038,-6.7099,-6.7165,-6.7225,-6.7281,-6.7357,-6.7454,-6.7483,-6.7575,-6.7654,-6.7778,-6.7828,-6.79,-6.7896,-6.7917,-6.7922,-6.7926,-6.7924,-6.7813,-6.7917,-6.7917,-6.7917,-6.7917,-6.7917,0,-6.6894,-6.695,-6.7028,-6.7128,-6.7195,-6.7211,-6.7292,-6.7345,-6.7427,-6.7499,-6.7572,-6.7674,-6.7759,-6.783,-6.7917,-6.7961,-6.7973,-6.7982,-6.7978,-6.7988,-6.7924,-6.7902,-6.7971,-6.7971,-6.7971,-6.7971,-6.7971,-6.7971,-6.6944,-6.7039,-6.7077,-6.7202,-6.7257,-6.7348,-6.7393,-6.7454,-6.7512,-6.7625,-6.7696,-6.7743,-6.7814,-6.7908,-6.7986,-6.8005,-6.8034,-6.8041,-6.8061,-6.7999,-6.7993,-6.7987,-6.7966,-6.8048,-6.8048,-6.8119,-6.812,-6.812]},{"header":{"parameterUnit":"m.s-1","parameterCategory":1,"la1":30.2991,"la2":30.254,"lo1":-89.0895,"lo2":-89.0444,"dy":0.0017,"dx":0.0017,"nx":28,"ny":28,"refTime":"2024-04-27T03:00:00:Z","depth":0,"parameterNumber":3,"parameterNumberName":"V-component_of_WINDS"},"data":[0,0,0,0,0,0,0,0,0,0,0,0,0,0,0,0,0,0,0,0,0,0,0,0,0,0,0,0,0,0,0,0,0,0,0,0,0,0,0,0,0,0,0,0,0,0,0,0,0,0,0,0,0,0,0,0,0,0,5.6206,5.6206,0,5.6205,5.6205,5.6205,5.621,5.621,5.6211,5.6211,5.6204,5.6204,5.6204,0,0,0,0,0,0,0,0,0,0,0,0,0,5.6208,5.6208,5.6206,5.6206,5.6206,5.6205,5.6205,5.6205,5.621,5.621,5.6211,5.6211,5.6205,5.6204,5.6204,0,0,0,0,0,0,0,0,0,0,0,0,0,5.6207,5.6208,5.6206,5.6208,5.6209,5.6205,5.6205,5.6205,5.621,5.621,5.6211,5.6211,5.6205,5.6204,5.6204,5.6196,0,0,5.6202,5.6202,0,0,0,0,0,0,0,0,5.6207,5.6207,5.6208,5.6208,5.6209,5.6208,5.6204,5.6202,5.621,5.6209,5.6211,5.6211,5.6205,5.6205,5.6204,5.6196,5.6196,5.6202,5.6202,5.6202,5.6202,0,0,0,0,0,0,0,5.6207,5.6207,5.6205,5.6208,5.6208,5.6208,5.6209,5.6203,5.6206,5.6209,5.621,5.621,5.6205,5.6204,5.6204,5.6195,5.6202,5.6202,5.6202,5.6201,5.6183,5.6183,0,0,0,0,0,0,5.6207,5.6207,5.6205,5.6205,5.6209,5.6208,5.6208,5.6208,5.6206,5.6206,5.621,5.621,5.6205,5.6204,5.6203,5.6196,5.6202,5.6201,5.6201,5.6183,5.6183,5.6182,0,0,0,0,0,0,5.6208,5.6207,5.6205,5.6206,5.6206,5.6208,5.6207,5.6208,5.6207,5.6206,5.6206,5.6209,5.6205,5.6204,5.6199,5.6195,5.6201,5.6201,5.6183,5.6183,5.6183,5.6179,0,0,0,0,0,0,5.6208,5.6207,5.6205,5.6206,5.6206,5.6202,5.6207,5.6208,5.6207,5.6207,5.6205,5.6205,5.6205,5.6199,5.6198,5.6195,5.62,5.6183,5.6183,5.6183,5.6179,5.6178,5.6178,0,0,0,0,0,5.6208,5.6202,5.6205,5.6205,5.6204,5.6202,5.6201,5.6203,5.6206,5.6204,5.6204,5.6205,5.6196,5.6199,5.6197,5.6194,5.6184,5.6183,5.6183,5.6179,5.6178,5.6178,0,0,0,0,0,0,5.6198,5.6203,5.6205,5.6201,5.6201,5.6202,5.6199,5.6202,5.62,5.62,5.6201,5.6201,5.6195,5.6194,5.6197,5.6187,5.619,5.6189,5.6188,5.6187,5.6186,5.6187,5.62,0,0,0,0,0,5.6196,5.6196,5.6199,5.6194,5.6195,5.6197,5.6196,5.6198,5.6197,5.6197,5.6196,5.6195,5.6192,5.6189,5.6186,5.6179,5.6179,5.6176,5.6175,5.6175,5.6174,5.6171,5.617,5.6181,5.6181,5.6181,0,0,5.6191,5.6193,5.6192,5.6192,5.6193,5.6191,5.6197,5.6194,5.6193,5.6196,5.6192,5.6191,5.6189,5.6184,5.6181,5.6182,5.6171,5.6174,5.6174,5.6173,5.6171,5.617,5.6169,5.6181,5.6181,5.6181,0,0,5.618,5.6182,5.6179,5.618,5.6182,5.6184,5.6184,5.6185,5.6186,5.6182,5.6185,5.6182,5.6177,5.6176,5.6175,5.6167,5.6168,5.6165,5.6161,5.6158,5.6157,5.6157,5.6154,5.6153,5.6165,5.6165,5.6165,0,5.6173,5.6172,5.6177,5.6175,5.6176,5.6181,5.6178,5.6178,5.6178,5.6177,5.618,5.6174,5.6173,5.6168,5.6166,5.6165,5.6164,5.6165,5.6158,5.6157,5.6156,5.6154,5.6153,5.6164,5.6164,5.6164,5.6164,0,5.6163,5.6163,5.616,5.6163,5.6162,5.616,5.6164,5.6163,5.6165,5.6167,5.6163,5.6163,5.6161,5.6159,5.616,5.6155,5.6156,5.6158,5.6161,5.6155,5.6153,5.6152,5.6164,5.6164,5.6164,5.6164,0,0,5.6145,5.6153,5.6151,5.6153,5.6157,5.6156,5.6153,5.6154,5.6153,5.6153,5.6151,5.6148,5.615,5.6149,5.615,5.6148,5.6143,5.6151,5.615,5.6149,5.6137,5.6136,5.6134,5.6144,5.6144,5.6144,5.6137,0,5.6136,5.6134,5.614,5.6136,5.6136,5.6142,5.6141,5.6142,5.6144,5.6143,5.6144,5.6142,5.6146,5.6145,5.6143,5.6144,5.614,5.6144,5.6142,5.6141,5.6142,5.6133,5.6131,5.6125,5.6136,5.6136,5.6136,0,5.6124,5.6126,5.6124,5.6129,5.6129,5.6128,5.6129,5.6129,5.613,5.6132,5.6132,5.6135,5.6132,5.6136,5.6133,5.6135,5.6135,5.6135,5.6135,5.6134,5.6138,5.6133,5.6123,5.6122,5.6135,5.6135,5.6135,0,5.6112,5.6114,5.6114,5.6115,5.6121,5.612,5.6122,5.6124,5.6124,5.6125,5.6125,5.6125,5.6125,5.6124,5.6126,5.6129,5.6123,5.6127,5.6124,5.6124,5.6121,5.6122,5.6112,5.6121,5.6121,5.6121,5.6121,0,5.6101,5.6099,5.6109,5.6108,5.6106,5.6112,5.611,5.6113,5.6115,5.6114,5.6119,5.6118,5.6122,5.6121,5.6122,5.612,5.6119,5.612,5.6121,5.612,5.612,5.6119,5.6119,5.6121,5.6121,5.6121,5.6121,0,5.6087,5.6093,5.6093,5.61,5.6101,5.61,5.6105,5.6104,5.6107,5.6107,5.6107,5.6111,5.6111,5.6114,5.6113,5.6114,5.6111,5.6111,5.6111,5.6111,5.6108,5.6108,5.6097,5.6096,5.6106,5.6106,5.6106,0,5.6079,5.6078,5.6086,5.6087,5.609,5.6091,5.6092,5.6098,5.6099,5.6102,5.6101,5.6102,5.6103,5.6102,5.6104,5.6104,5.6105,5.6101,5.6105,5.6104,5.6105,5.6105,5.6105,5.61,5.61,5.61,5.61,0,5.6065,5.6069,5.6072,5.6076,5.6078,5.608,5.6083,5.6084,5.609,5.6091,5.6092,5.6093,5.6094,5.6094,5.6095,5.6096,5.6099,5.6099,5.6098,5.6097,5.6097,5.6098,5.6109,5.6099,5.6099,5.6099,5.6099,5.6099,5.6054,5.6055,5.6061,5.6064,5.6067,5.6071,5.6071,5.6075,5.6077,5.608,5.6083,5.6084,5.6086,5.6088,5.6089,5.6089,5.6091,5.609,5.6089,5.6089,5.6089,5.6098,5.6089,5.6089,5.6089,5.6089,5.6089,0,5.6041,5.6046,5.6049,5.6054,5.6057,5.6062,5.6066,5.6067,5.6069,5.6072,5.6074,5.6075,5.6076,5.608,5.6081,5.608,5.6082,5.608,5.608,5.6081,5.6087,5.6088,5.6079,5.6079,5.6079,5.6079,5.6079,5.6079,5.6035,5.6036,5.6041,5.6044,5.6048,5.6051,5.6053,5.6056,5.6059,5.6061,5.6063,5.6066,5.6069,5.6071,5.6072,5.6073,5.6073,5.6072,5.6073,5.6079,5.608,5.6081,5.6081,5.6072,5.6072,5.6067,5.6066,5.6066]}]]